sat.trackr.live / text

‹ back to catalog

STARLINK-11638 [DTC]

NORAD 63269 · 2025-053E

PAYLOAD ACTIVE UNKNOWN

§ Identity

Operator
Country
US
Launch date
2025-03-15
Launch site
AFETR
Launch vehicle
Mass (kg)
RCS (m²)

Purposes: comms

External: N2YO · Heavens-Above · Gunter

§ Orbital elements

Epoch: 2026-09-20T09:20:34.663776Z

Period
91.66 min
Inclination
42.9992°
Eccentricity
0.0001680
Mean motion
15.70993532 rev/d
Perigee alt
354.9 km
Apogee alt
357.2 km
Semi-major
6,734.2 km
B*
1.6250e-3
RAAN
18.3769°
Arg perigee
308.5997°
Mean anomaly
51.4720°
Rev number
8,829

§ Raw data

STARLINK-11638 [DTC]1 63269U 25053E   26263.38929009  .00214918  00000+0  16250-2 0  99902 63269  42.9992  18.3769 0001680 308.5997  51.4720 15.70993532 88293

JSON: /api/v1/satellites/63269 · /tle

For live sub-satellite position, see the globe view (requires WebGL).

§ Visibility from observer

Set your observer location to see the next 7 days of passes ≥ 10°. The values pass through the URL so the page stays shareable.

No JS? Fill the form by hand. The geolocation button needs JavaScript.